TimeEST,TemperatureF,Dew PointF,Humidity,Sea Level PressureIn,VisibilityMPH,Wind Direction,Wind SpeedMPH,Gust SpeedMPH,PrecipitationIn,Events,Conditions,WindDirDegrees,DateUTC
12:15 AM,31.5,28.4,88,29.82,7.0,Calm,Calm,-,N/A,,Overcast,0,2013-01-06 05:15:00
12:36 AM,31.1,28.0,88,29.81,10.0,Calm,Calm,-,N/A,,Overcast,0,2013-01-06 05:36:00
12:55 AM,30.9,28.0,89,29.81,10.0,Calm,Calm,-,N/A,,Overcast,0,2013-01-06 05:55:00
1:15 AM,30.6,28.0,90,29.80,10.0,Calm,Calm,-,N/A,,Overcast,0,2013-01-06 06:15:00
1:36 AM,30.4,28.0,91,29.80,10.0,East,3.5,-,N/A,,Overcast,100,2013-01-06 06:36:00
1:55 AM,30.6,28.9,94,29.79,5.0,ENE,3.5,-,N/A,,Overcast,70,2013-01-06 06:55:00
2:15 AM,30.7,29.8,96,29.79,3.0,ENE,3.5,-,N/A,,Overcast,70,2013-01-06 07:15:00
2:36 AM,31.1,30.6,98,29.79,3.0,Calm,Calm,-,N/A,,Overcast,0,2013-01-06 07:36:00
3:15 AM,31.1,31.1,100,29.78,3.0,Calm,Calm,-,N/A,,Overcast,0,2013-01-06 08:15:00
3:36 AM,31.1,31.1,100,29.78,4.0,Calm,Calm,-,N/A,,Overcast,0,2013-01-06 08:36:00
3:55 AM,30.7,30.6,99,29.78,5.0,ENE,3.5,-,N/A,,Overcast,60,2013-01-06 08:55:00
4:15 AM,30.6,30.6,100,29.78,5.0,Calm,Calm,-,N/A,,Overcast,0,2013-01-06 09:15:00
4:35 AM,30.2,30.2,100,29.78,5.0,Calm,Calm,-,N/A,,Overcast,0,2013-01-06 09:35:00
4:55 AM,30.0,30.0,100,29.77,4.0,Calm,Calm,-,N/A,,Overcast,0,2013-01-06 09:55:00
5:16 AM,29.8,29.8,100,29.77,4.0,Calm,Calm,-,N/A,,Overcast,0,2013-01-06 10:16:00
5:35 AM,29.3,29.3,100,29.77,5.0,NE,3.5,-,N/A,,Overcast,50,2013-01-06 10:35:00
5:55 AM,29.3,29.3,100,29.78,5.0,NE,3.5,-,N/A,,Overcast,40,2013-01-06 10:55:00
6:15 AM,28.6,28.6,100,29.78,5.0,ENE,6.9,-,N/A,,Overcast,60,2013-01-06 11:15:00
6:35 AM,27.5,27.5,100,29.79,7.0,ENE,4.6,-,N/A,,Overcast,60,2013-01-06 11:35:00
6:55 AM,27.3,27.3,100,29.80,7.0,NE,6.9,-,N/A,,Overcast,50,2013-01-06 11:55:00
7:15 AM,27.0,27.0,100,29.80,7.0,NE,5.8,-,N/A,,Overcast,40,2013-01-06 12:15:00
7:36 AM,26.6,26.4,99,29.81,10.0,NNE,5.8,-,N/A,,Overcast,30,2013-01-06 12:36:00
7:55 AM,25.7,25.7,100,29.82,7.0,NNE,4.6,-,N/A,,Overcast,30,2013-01-06 12:55:00
8:15 AM,25.7,25.7,100,29.83,3.0,NNE,4.6,-,N/A,Snow,Light Snow,30,2013-01-06 13:15:00
8:36 AM,25.7,25.3,99,29.84,1.2,NNE,4.6,-,N/A,Snow,Light Snow,20,2013-01-06 13:36:00
8:55 AM,25.5,24.6,96,29.84,2.0,NNE,6.9,-,N/A,Snow,Light Snow,20,2013-01-06 13:55:00
9:15 AM,24.8,23.7,96,29.85,1.5,North,5.8,-,N/A,Snow,Light Snow,10,2013-01-06 14:15:00
9:36 AM,23.9,22.6,95,29.86,1.5,NNE,6.9,-,N/A,Snow,Light Snow,30,2013-01-06 14:36:00
9:55 AM,23.9,22.5,94,29.87,1.8,NNE,8.1,-,N/A,Snow,Light Snow,30,2013-01-06 14:55:00
10:15 AM,23.9,22.3,94,29.88,1.8,NNE,4.6,-,N/A,Snow,Light Snow,30,2013-01-06 15:15:00
10:36 AM,24.1,22.3,93,29.89,10.0,NNE,5.8,-,N/A,,Overcast,20,2013-01-06 15:36:00
10:55 AM,24.6,22.1,90,29.90,10.0,NNE,10.4,18.4,N/A,,Overcast,20,2013-01-06 15:55:00
11:15 AM,24.1,21.9,91,29.91,5.0,NNE,8.1,-,N/A,,Overcast,30,2013-01-06 16:15:00
11:35 AM,23.9,21.0,89,29.91,10.0,NNE,6.9,-,N/A,,Overcast,20,2013-01-06 16:35:00
11:55 AM,24.6,20.8,86,29.92,10.0,NNE,8.1,17.3,N/A,,Overcast,30,2013-01-06 16:55:00
12:16 PM,24.8,20.3,83,29.92,10.0,NNE,6.9,-,N/A,,Overcast,30,2013-01-06 17:16:00
12:35 PM,24.8,19.8,81,29.92,10.0,NE,5.8,-,N/A,,Mostly Cloudy,40,2013-01-06 17:35:00
12:55 PM,25.3,19.8,79,29.92,10.0,NE,10.4,-,N/A,,Overcast,40,2013-01-06 17:55:00
1:16 PM,25.5,20.3,81,29.93,10.0,NE,4.6,-,N/A,Snow,Light Snow,40,2013-01-06 18:16:00
1:35 PM,25.5,19.4,78,29.93,10.0,NNE,5.8,-,N/A,,Mostly Cloudy,20,2013-01-06 18:35:00
1:55 PM,26.1,20.1,78,29.94,10.0,North,8.1,-,N/A,,Mostly Cloudy,360,2013-01-06 18:55:00
2:16 PM,25.3,19.2,78,29.96,10.0,North,8.1,-,N/A,,Overcast,350,2013-01-06 19:16:00
2:35 PM,25.2,18.5,76,29.97,10.0,North,5.8,-,N/A,,Overcast,360,2013-01-06 19:35:00
2:55 PM,25.0,17.6,74,29.98,10.0,North,6.9,-,N/A,,Mostly Cloudy,360,2013-01-06 19:55:00
3:15 PM,24.8,17.4,74,29.99,10.0,North,6.9,-,N/A,,Scattered Clouds,360,2013-01-06 20:15:00
3:35 PM,25.0,16.7,71,30.00,10.0,North,5.8,-,N/A,,Scattered Clouds,360,2013-01-06 20:35:00
3:55 PM,24.8,16.7,71,30.02,10.0,North,4.6,-,N/A,,Clear,350,2013-01-06 20:55:00
4:15 PM,24.3,16.0,71,30.03,10.0,North,3.5,-,N/A,,Clear,350,2013-01-06 21:15:00
4:36 PM,23.9,15.8,71,30.05,10.0,NNW,3.5,-,N/A,,Clear,340,2013-01-06 21:36:00
4:55 PM,23.0,14.9,71,30.06,10.0,NNW,4.6,-,N/A,,Clear,340,2013-01-06 21:55:00
5:15 PM,22.5,14.9,73,30.07,10.0,Calm,Calm,-,N/A,,Clear,0,2013-01-06 22:15:00
5:36 PM,21.0,14.4,75,30.08,10.0,Calm,Calm,-,N/A,,Clear,0,2013-01-06 22:36:00
5:55 PM,20.8,14.5,77,30.09,10.0,Calm,Calm,-,N/A,,Clear,0,2013-01-06 22:55:00
6:15 PM,19.2,14.2,81,30.11,10.0,Calm,Calm,-,N/A,,Clear,0,2013-01-06 23:15:00
6:35 PM,18.5,14.2,83,30.12,10.0,Calm,Calm,-,N/A,,Clear,0,2013-01-06 23:35:00
6:55 PM,17.4,14.0,86,30.12,10.0,Calm,Calm,-,N/A,,Clear,0,2013-01-06 23:55:00
7:16 PM,17.1,13.3,85,30.13,10.0,Calm,Calm,-,N/A,,Clear,0,2013-01-07 00:16:00
7:35 PM,15.3,12.4,88,30.14,10.0,Calm,Calm,-,N/A,,Clear,0,2013-01-07 00:35:00
7:55 PM,13.1,11.3,93,30.15,10.0,Calm,Calm,-,N/A,,Clear,0,2013-01-07 00:55:00
8:16 PM,15.3,12.7,90,30.15,10.0,Calm,Calm,-,N/A,,Clear,0,2013-01-07 01:16:00
8:35 PM,13.6,11.1,90,30.17,10.0,Calm,Calm,-,N/A,,Clear,0,2013-01-07 01:35:00
8:55 PM,12.9,11.1,93,30.18,10.0,Calm,Calm,-,N/A,,Mostly Cloudy,0,2013-01-07 01:55:00
9:16 PM,15.3,12.7,90,30.18,10.0,Calm,Calm,-,N/A,,Overcast,0,2013-01-07 02:16:00
9:35 PM,15.3,12.4,88,30.18,10.0,Calm,Calm,-,N/A,,Overcast,0,2013-01-07 02:35:00
9:55 PM,18.1,12.9,80,30.18,10.0,Calm,Calm,-,N/A,,Overcast,0,2013-01-07 02:55:00
10:35 PM,18.5,11.3,73,30.19,10.0,NE,3.5,-,N/A,,Overcast,40,2013-01-07 03:35:00
10:56 PM,18.5,11.7,75,30.20,10.0,Calm,Calm,-,N/A,,Overcast,0,2013-01-07 03:56:00
11:15 PM,18.5,11.7,75,30.20,10.0,East,3.5,-,N/A,,Overcast,100,2013-01-07 04:15:00
11:35 PM,18.5,12.0,76,30.21,10.0,Calm,Calm,-,N/A,,Overcast,0,2013-01-07 04:35:00
11:55 PM,18.5,12.2,76,30.21,10.0,Calm,Calm,-,N/A,,Overcast,0,2013-01-07 04:55:00